Location: IoMAS Observatory
(54.1780°N, 4.6265°W)
Time: 18:24:35
(UTC+01:00)

ISS - Pass Details

Date: 26 February 2019
Orbit: 406 x 411 km, 51.6° (Epoch: 21 March)

Event Time Altitude Azimuth Distance (km) Brightness Sun altitude
Exits shadow 07:06:30 - 212° (SSW) 2,114 -0.5 -10.8°
Reaches altitude 10° 07:08:24 10° 197° (SSW) 1,463 -1.2 -10.5°
Maximum altitude 07:10:49 19° 149° (SSE) 1,034 -1.4 -10.2°
Drops below altitude 10° 07:13:15 10° 101° (E) 1,470 0.6 -9.8°
Sets 07:15:43 0° 83° (E) 2,334 2.2 -9.4°
